FENGYUN 1C DEB

Satellite information

Favourite Embed

Satellite Type and Status

DEBRISIN ORBIT

Key statistics

Satellite FENGYUN 1C DEB at a glance.

Uptime

9494

Days in orbit

Revolutions

≈ 14.3

Per day

Orbit

SSO

Sun Synchronous Orbit

Inclination

98.4

Latest

Satellite identification and parameters

Extended collection of information and parameters for FENGYUN 1C DEB.

Object identification

Identified? True

Debris? True

Object name: FENGYUN 1C DEB

International designator: 1999-025EDD

Object number (NORAD): 37021

Object ID (CCSDS): 37021

Country: PEOPLES REPUBLIC OF CHINA (PRC)

Current information (Y/N): Y

RCS size: SMALL

Orbital parameters

Period: 100.623 minutes

Inclination: 98.3978 deg

SMA: 7166.266 km

Apoapsis: 916.603 km

Periapsis: 659.659 km

RAAN: 149.6607 deg

Eccentricy: 0.0179273

Argument of periapsis: 186.2826 deg

Mean anomaly: 347.5867 deg

Mean motion: 14.31078146 rev/day

Mean motion (dot): 0.0000243 rev/day2

B* drag term: 0.00078795 1/REarth

Two-line elements (TLE)

Creation date: May 6, 2025, 3:54 a.m.

Reference frame: TEME

Reference center: EARTH

Epoch: May 5, 2025, 7:44 p.m. UTC

TLE line 0: 0 FENGYUN 1C DEB

TLE line 1: 1 37021U 99025EDD 25125.82228103 .00002430 00000-0 78795-3 0 9997

TLE line 2: 2 37021 98.3978 149.6607 0179273 186.2826 347.5867 14.31078146668931

Live tracking on map

Real-time ground track for satellite FENGYUN 1C DEB.

In-orbit conjunctions

A list of the most updated potential collisions computed for object FENGYUN 1C DEB.

Target Orbit TCA Probability of collision Miss distance Type
DELTA 1 DEB SSO 2024-11-11 10:04:08 0.0006907888 316.0 (m) DEBRIS
METEOR 1-17 LEO 2024-10-28 19:17:11 0.0004140703 644.0 (m) PAYLOAD

Associated space launch

Chinese polar orbiting meteorological satellite

FENGYUN 1C DEB was lifted into orbit during the mission ‘Long March 4B | Feng Yun 1C’, on board a Long March 4B space rocket.

The launch took place on May 10, 1999, 1:33 a.m. from Launch Complex 7.

For more information about the launch, click the button.

Launch to space Long March 4B | Feng Yun 1C
Long March 4B | Feng Yun 1C

Agency: N/A

Status: Launch Successful

Launch date: May 10, 1999, 1:33 a.m. UTC

Rocket: Long March 4B

Launch pad: Launch Complex 7

Location: Taiyuan Satellite Launch Center, People's Republic of China

...

Latest news about this satellite

There are no fresh news available about this satellite. Check back as we update our databases every day.


Newsletter sign-up

Weekly statistics, charts and insights to help you stay on top of the space industry.